Time,TemperatureF,DewpointF,PressureIn,WindDirection,WindDirectionDegrees,WindSpeedMPH,WindSpeedGustMPH,Humidity,HourlyPrecipIn,Conditions,Clouds,dailyrainin,SoftwareType,DateUTC
2013-03-01 00:01:00,28.0,9.4,30.35,West,270,5.0,10.0,45,0.00,,,0.00,Weather View 32 v70,2013-03-01 07:01:00,
2013-03-01 00:06:00,27.0,8.5,30.35,West,270,6.0,10.0,45,0.00,,,0.00,Weather View 32 v70,2013-03-01 07:06:00,
2013-03-01 00:11:00,27.0,9.0,30.35,West,270,6.0,10.0,46,0.00,,,0.00,Weather View 32 v70,2013-03-01 07:11:00,
2013-03-01 00:16:00,27.0,9.4,30.35,West,270,4.0,10.0,47,0.00,,,0.00,Weather View 32 v70,2013-03-01 07:16:00,
2013-03-01 00:21:00,27.0,9.4,30.36,West,270,5.0,10.0,47,0.00,,,0.00,Weather View 32 v70,2013-03-01 07:21:00,
2013-03-01 00:26:00,27.0,9.4,30.36,West,270,5.0,10.0,47,0.00,,,0.00,Weather View 32 v70,2013-03-01 07:26:00,
2013-03-01 00:31:00,27.0,9.4,30.35,West,270,8.0,10.0,47,0.00,,,0.00,Weather View 32 v70,2013-03-01 07:31:00,
2013-03-01 00:36:00,27.0,9.4,30.35,West,270,6.0,10.0,47,0.00,,,0.00,Weather View 32 v70,2013-03-01 07:36:00,
2013-03-01 00:41:00,27.0,9.4,30.34,West,270,7.0,10.0,47,0.00,,,0.00,Weather View 32 v70,2013-03-01 07:41:00,
2013-03-01 00:46:00,27.0,9.4,30.34,West,270,6.0,10.0,47,0.00,,,0.00,Weather View 32 v70,2013-03-01 07:46:00,
2013-03-01 00:51:00,27.0,9.4,30.35,West,270,5.0,11.0,47,0.00,,,0.00,Weather View 32 v70,2013-03-01 07:51:00,
2013-03-01 00:56:00,27.0,9.4,30.35,West,270,3.0,11.0,47,0.00,,,0.00,Weather View 32 v70,2013-03-01 07:56:00,
2013-03-01 01:01:00,27.0,9.4,30.34,West,270,5.0,11.0,47,0.00,,,0.00,Weather View 32 v70,2013-03-01 08:01:00,
2013-03-01 01:06:00,27.0,9.4,30.34,West,270,3.0,11.0,47,0.00,,,0.00,Weather View 32 v70,2013-03-01 08:06:00,
2013-03-01 01:11:00,27.0,9.4,30.34,WSW,247,6.0,11.0,47,0.00,,,0.00,Weather View 32 v70,2013-03-01 08:11:00,
2013-03-01 01:16:00,27.0,9.4,30.34,West,270,5.0,11.0,47,0.00,,,0.00,Weather View 32 v70,2013-03-01 08:16:00,
2013-03-01 01:21:00,27.0,9.4,30.35,West,270,4.0,11.0,47,0.00,,,0.00,Weather View 32 v70,2013-03-01 08:21:00,
2013-03-01 01:26:00,27.0,9.9,30.35,West,270,6.0,11.0,48,0.00,,,0.00,Weather View 32 v70,2013-03-01 08:26:00,
2013-03-01 01:31:00,27.0,9.9,30.35,West,270,4.0,11.0,48,0.00,,,0.00,Weather View 32 v70,2013-03-01 08:31:00,
2013-03-01 01:36:00,27.0,9.9,30.35,SW,225,5.0,11.0,48,0.00,,,0.00,Weather View 32 v70,2013-03-01 08:36:00,
2013-03-01 01:41:00,27.0,9.9,30.35,West,270,6.0,11.0,48,0.00,,,0.00,Weather View 32 v70,2013-03-01 08:41:00,
2013-03-01 01:46:00,27.0,9.9,30.35,WSW,247,6.0,11.0,48,0.00,,,0.00,Weather View 32 v70,2013-03-01 08:46:00,
2013-03-01 01:51:00,27.0,9.9,30.35,SW,225,7.0,10.0,48,0.00,,,0.00,Weather View 32 v70,2013-03-01 08:51:00,
2013-03-01 01:56:00,27.0,9.9,30.35,WSW,247,3.0,10.0,48,0.00,,,0.00,Weather View 32 v70,2013-03-01 08:56:00,
2013-03-01 02:01:00,27.0,9.9,30.35,West,270,5.0,10.0,48,0.00,,,0.00,Weather View 32 v70,2013-03-01 09:01:00,
2013-03-01 02:06:00,27.0,9.9,30.35,West,270,4.0,10.0,48,0.00,,,0.00,Weather View 32 v70,2013-03-01 09:06:00,
2013-03-01 02:11:00,27.0,9.9,30.35,West,270,3.0,10.0,48,0.00,,,0.00,Weather View 32 v70,2013-03-01 09:11:00,
2013-03-01 02:16:00,27.0,10.4,30.35,West,270,6.0,10.0,49,0.00,,,0.00,Weather View 32 v70,2013-03-01 09:16:00,
2013-03-01 02:21:00,27.0,9.9,30.35,West,270,3.0,10.0,48,0.00,,,0.00,Weather View 32 v70,2013-03-01 09:21:00,
2013-03-01 02:26:00,26.0,9.9,30.35,WNW,292,3.0,10.0,50,0.00,,,0.00,Weather View 32 v70,2013-03-01 09:26:00,
2013-03-01 02:31:00,26.0,9.9,30.35,WNW,292,5.0,10.0,50,0.00,,,0.00,Weather View 32 v70,2013-03-01 09:31:00,
2013-03-01 02:35:00,26.0,10.8,30.35,West,270,5.0,10.0,52,0.00,,,0.00,Weather View 32 v70,2013-03-01 09:35:00,
2013-03-01 02:40:00,26.0,10.3,30.34,NW,315,4.0,10.0,51,0.00,,,0.00,Weather View 32 v70,2013-03-01 09:40:00,
2013-03-01 02:45:00,26.0,10.3,30.34,West,270,6.0,10.0,51,0.00,,,0.00,Weather View 32 v70,2013-03-01 09:45:00,
2013-03-01 02:50:00,26.0,9.9,30.35,West,270,4.0,11.0,50,0.00,,,0.00,Weather View 32 v70,2013-03-01 09:50:00,
2013-03-01 02:55:00,26.0,10.3,30.35,West,270,6.0,11.0,51,0.00,,,0.00,Weather View 32 v70,2013-03-01 09:55:00,
2013-03-01 03:00:00,26.0,10.3,30.34,West,270,6.0,11.0,51,0.00,,,0.00,Weather View 32 v70,2013-03-01 10:00:00,
2013-03-01 03:05:00,26.0,10.3,30.34,WSW,247,7.0,11.0,51,0.00,,,0.00,Weather View 32 v70,2013-03-01 10:05:00,
2013-03-01 03:10:00,26.0,10.3,30.35,West,270,7.0,13.0,51,0.00,,,0.00,Weather View 32 v70,2013-03-01 10:10:00,
2013-03-01 03:15:00,26.0,9.9,30.35,West,270,4.0,13.0,50,0.00,,,0.00,Weather View 32 v70,2013-03-01 10:15:00,
2013-03-01 03:20:00,26.0,9.9,30.35,West,270,5.0,13.0,50,0.00,,,0.00,Weather View 32 v70,2013-03-01 10:20:00,
2013-03-01 03:25:00,26.0,10.3,30.35,West,270,5.0,13.0,51,0.00,,,0.00,Weather View 32 v70,2013-03-01 10:25:00,
2013-03-01 03:30:00,26.0,10.8,30.34,WNW,292,7.0,13.0,52,0.00,,,0.00,Weather View 32 v70,2013-03-01 10:30:00,
2013-03-01 03:35:00,26.0,10.8,30.34,West,270,4.0,13.0,52,0.00,,,0.00,Weather View 32 v70,2013-03-01 10:35:00,
2013-03-01 03:40:00,26.0,10.8,30.34,SW,225,4.0,13.0,52,0.00,,,0.00,Weather View 32 v70,2013-03-01 10:40:00,
2013-03-01 03:45:00,25.0,9.8,30.34,West,270,8.0,13.0,52,0.00,,,0.00,Weather View 32 v70,2013-03-01 10:45:00,
2013-03-01 03:50:00,26.0,10.8,30.34,SW,225,7.0,13.0,52,0.00,,,0.00,Weather View 32 v70,2013-03-01 10:50:00,
2013-03-01 03:55:00,25.0,9.8,30.34,SW,225,4.0,13.0,52,0.00,,,0.00,Weather View 32 v70,2013-03-01 10:55:00,
2013-03-01 04:00:00,25.0,9.8,30.34,SSW,202,4.0,13.0,52,0.00,,,0.00,Weather View 32 v70,2013-03-01 11:00:00,
2013-03-01 04:05:00,25.0,10.3,30.34,SW,225,6.0,13.0,53,0.00,,,0.00,Weather View 32 v70,2013-03-01 11:05:00,
2013-03-01 04:10:00,25.0,10.3,30.34,WSW,247,4.0,12.0,53,0.00,,,0.00,Weather View 32 v70,2013-03-01 11:10:00,
2013-03-01 04:15:00,25.0,10.7,30.34,WSW,247,3.0,12.0,54,0.00,,,0.00,Weather View 32 v70,2013-03-01 11:15:00,
2013-03-01 04:20:00,25.0,10.7,30.34,West,270,5.0,12.0,54,0.00,,,0.00,Weather View 32 v70,2013-03-01 11:20:00,
2013-03-01 04:25:00,25.0,10.7,30.34,WSW,247,5.0,12.0,54,0.00,,,0.00,Weather View 32 v70,2013-03-01 11:25:00,
2013-03-01 04:30:00,25.0,10.3,30.34,West,270,6.0,13.0,53,0.00,,,0.00,Weather View 32 v70,2013-03-01 11:30:00,
2013-03-01 04:35:00,25.0,9.8,30.34,West,270,9.0,13.0,52,0.00,,,0.00,Weather View 32 v70,2013-03-01 11:35:00,
2013-03-01 04:40:00,26.0,9.9,30.34,West,270,7.0,13.0,50,0.00,,,0.00,Weather View 32 v70,2013-03-01 11:40:00,
2013-03-01 04:45:00,26.0,9.9,30.34,West,270,4.0,18.0,50,0.00,,,0.00,Weather View 32 v70,2013-03-01 11:45:00,
2013-03-01 04:50:00,27.0,9.9,30.34,West,270,9.0,18.0,48,0.00,,,0.00,Weather View 32 v70,2013-03-01 11:50:00,
2013-03-01 04:55:00,27.0,10.4,30.34,West,270,7.0,18.0,49,0.00,,,0.00,Weather View 32 v70,2013-03-01 11:55:00,
2013-03-01 05:01:00,27.0,9.9,30.33,West,270,7.0,18.0,48,0.00,,,0.00,Weather View 32 v70,2013-03-01 12:01:00,
2013-03-01 05:06:00,27.0,9.9,30.33,West,270,7.0,18.0,48,0.00,,,0.00,Weather View 32 v70,2013-03-01 12:06:00,
2013-03-01 05:11:00,27.0,9.9,30.33,West,270,7.0,18.0,48,0.00,,,0.00,Weather View 32 v70,2013-03-01 12:11:00,
2013-03-01 05:16:00,27.0,9.9,30.33,West,270,6.0,18.0,48,0.00,,,0.00,Weather View 32 v70,2013-03-01 12:16:00,
2013-03-01 05:21:00,27.0,10.4,30.34,West,270,6.0,18.0,49,0.00,,,0.00,Weather View 32 v70,2013-03-01 12:21:00,
2013-03-01 05:26:00,26.0,9.4,30.34,West,270,6.0,18.0,49,0.00,,,0.00,Weather View 32 v70,2013-03-01 12:26:00,
2013-03-01 05:32:00,26.0,9.9,30.34,West,270,6.0,18.0,50,0.00,,,0.00,Weather View 32 v70,2013-03-01 12:32:00,
2013-03-01 05:37:00,26.0,9.9,30.34,West,270,8.0,18.0,50,0.00,,,0.00,Weather View 32 v70,2013-03-01 12:37:00,
2013-03-01 05:42:00,26.0,9.9,30.34,WNW,292,4.0,18.0,50,0.00,,,0.00,Weather View 32 v70,2013-03-01 12:42:00,
2013-03-01 05:47:00,26.0,10.3,30.34,West,270,5.0,17.0,51,0.00,,,0.00,Weather View 32 v70,2013-03-01 12:47:00,
2013-03-01 05:52:00,26.0,10.3,30.34,West,270,7.0,17.0,51,0.00,,,0.00,Weather View 32 v70,2013-03-01 12:52:00,
2013-03-01 05:57:00,26.0,10.3,30.34,West,270,7.0,17.0,51,0.00,,,0.00,Weather View 32 v70,2013-03-01 12:57:00,
2013-03-01 06:03:00,26.0,10.8,30.34,West,270,5.0,14.0,52,0.00,,,0.00,Weather View 32 v70,2013-03-01 13:03:00,
2013-03-01 06:08:00,26.0,10.8,30.34,West,270,7.0,12.0,52,0.00,,,0.00,Weather View 32 v70,2013-03-01 13:08:00,
2013-03-01 06:13:00,26.0,10.8,30.34,West,270,7.0,12.0,52,0.00,,,0.00,Weather View 32 v70,2013-03-01 13:13:00,
2013-03-01 06:18:00,26.0,10.8,30.34,West,270,10.0,13.0,52,0.00,,,0.00,Weather View 32 v70,2013-03-01 13:18:00,
2013-03-01 06:23:00,26.0,10.8,30.34,West,270,12.0,13.0,52,0.00,,,0.00,Weather View 32 v70,2013-03-01 13:23:00,
2013-03-01 06:28:00,26.0,10.8,30.34,West,270,6.0,14.0,52,0.00,,,0.00,Weather View 32 v70,2013-03-01 13:28:00,
2013-03-01 06:33:00,26.0,10.8,30.35,West,270,8.0,14.0,52,0.00,,,0.00,Weather View 32 v70,2013-03-01 13:33:00,
2013-03-01 06:38:00,26.0,10.8,30.35,West,270,5.0,14.0,52,0.00,,,0.00,Weather View 32 v70,2013-03-01 13:38:00,
2013-03-01 06:43:00,26.0,10.8,30.34,West,270,7.0,14.0,52,0.00,,,0.00,Weather View 32 v70,2013-03-01 13:43:00,
2013-03-01 06:48:00,26.0,10.8,30.34,West,270,10.0,14.0,52,0.00,,,0.00,Weather View 32 v70,2013-03-01 13:48:00,
2013-03-01 06:53:00,26.0,10.8,30.34,WNW,292,8.0,14.0,52,0.00,,,0.00,Weather View 32 v70,2013-03-01 13:53:00,
2013-03-01 06:58:00,26.0,10.8,30.34,NW,315,7.0,14.0,52,0.00,,,0.00,Weather View 32 v70,2013-03-01 13:58:00,
2013-03-01 07:03:00,26.0,10.3,30.35,WNW,292,13.0,14.0,51,0.00,,,0.00,Weather View 32 v70,2013-03-01 14:03:00,
2013-03-01 07:08:00,27.0,10.4,30.35,WNW,292,16.0,17.0,49,0.00,,,0.00,Weather View 32 v70,2013-03-01 14:08:00,
2013-03-01 07:13:00,27.0,9.9,30.35,NW,315,11.0,17.0,48,0.00,,,0.00,Weather View 32 v70,2013-03-01 14:13:00,
2013-03-01 07:18:00,28.0,10.4,30.35,West,270,9.0,19.0,47,0.00,,,0.00,Weather View 32 v70,2013-03-01 14:18:00,
2013-03-01 07:23:00,28.0,10.4,30.35,NW,315,10.0,19.0,47,0.00,,,0.00,Weather View 32 v70,2013-03-01 14:23:00,
2013-03-01 07:28:00,29.0,10.8,30.35,NW,315,6.0,19.0,46,0.00,,,0.00,Weather View 32 v70,2013-03-01 14:28:00,
2013-03-01 07:33:00,29.0,10.3,30.36,NW,315,5.0,19.0,45,0.00,,,0.00,Weather View 32 v70,2013-03-01 14:33:00,
2013-03-01 07:38:00,30.0,10.7,30.36,NW,315,6.0,19.0,44,0.00,,,0.00,Weather View 32 v70,2013-03-01 14:38:00,
2013-03-01 07:43:00,31.0,11.1,30.37,West,270,6.0,19.0,43,0.00,,,0.00,Weather View 32 v70,2013-03-01 14:43:00,
2013-03-01 07:48:00,31.0,11.1,30.37,WNW,292,9.0,19.0,43,0.00,,,0.00,Weather View 32 v70,2013-03-01 14:48:00,
2013-03-01 07:53:00,32.0,10.9,30.37,West,270,8.0,19.0,41,0.00,,,0.00,Weather View 32 v70,2013-03-01 14:53:00,
2013-03-01 07:58:00,32.0,10.9,30.37,WNW,292,6.0,19.0,41,0.00,,,0.00,Weather View 32 v70,2013-03-01 14:58:00,
2013-03-01 08:03:00,32.0,10.9,30.37,NW,315,7.0,19.0,41,0.00,,,0.00,Weather View 32 v70,2013-03-01 15:03:00,
2013-03-01 08:08:00,33.0,11.3,30.37,NW,315,3.0,19.0,40,0.00,,,0.00,Weather View 32 v70,2013-03-01 15:08:00,
2013-03-01 08:13:00,33.0,10.7,30.38,North,360,1.0,19.0,39,0.00,,,0.00,Weather View 32 v70,2013-03-01 15:13:00,
2013-03-01 08:18:00,34.0,11.6,30.38,West,270,4.0,16.0,39,0.00,,,0.00,Weather View 32 v70,2013-03-01 15:18:00,
2013-03-01 08:23:00,35.0,12.5,30.38,West,270,6.0,16.0,39,0.00,,,0.00,Weather View 32 v70,2013-03-01 15:23:00,
2013-03-01 08:28:00,35.0,11.3,30.38,NW,315,4.0,14.0,37,0.00,,,0.00,Weather View 32 v70,2013-03-01 15:28:00,
2013-03-01 08:33:00,36.0,11.6,30.38,NW,315,4.0,13.0,36,0.00,,,0.00,Weather View 32 v70,2013-03-01 15:33:00,
2013-03-01 08:38:00,36.0,11.6,30.38,WNW,292,0.0,13.0,36,0.00,,,0.00,Weather View 32 v70,2013-03-01 15:38:00,
2013-03-01 08:43:00,37.0,11.2,30.38,SW,225,3.0,13.0,34,0.00,,,0.00,Weather View 32 v70,2013-03-01 15:43:00,
2013-03-01 08:48:00,38.0,11.4,30.38,WNW,292,6.0,12.0,33,0.00,,,0.00,Weather View 32 v70,2013-03-01 15:48:00,
2013-03-01 08:53:00,39.0,11.6,30.37,West,270,6.0,12.0,32,0.00,,,0.00,Weather View 32 v70,2013-03-01 15:53:00,
2013-03-01 08:58:00,39.0,11.6,30.37,West,270,6.0,13.0,32,0.00,,,0.00,Weather View 32 v70,2013-03-01 15:58:00,
2013-03-01 09:03:00,40.0,12.5,30.37,NW,315,6.0,13.0,32,0.00,,,0.00,Weather View 32 v70,2013-03-01 16:03:00,
2013-03-01 09:08:00,40.0,12.5,30.37,West,270,9.0,15.0,32,0.00,,,0.00,Weather View 32 v70,2013-03-01 16:08:00,
2013-03-01 09:13:00,40.0,12.5,30.36,West,270,7.0,15.0,32,0.00,,,0.00,Weather View 32 v70,2013-03-01 16:13:00,
2013-03-01 09:18:00,41.0,12.6,30.36,West,270,6.0,16.0,31,0.00,,,0.00,Weather View 32 v70,2013-03-01 16:18:00,
2013-03-01 09:23:00,41.0,12.6,30.36,WNW,292,6.0,17.0,31,0.00,,,0.00,Weather View 32 v70,2013-03-01 16:23:00,
2013-03-01 09:28:00,41.0,12.6,30.36,West,270,5.0,17.0,31,0.00,,,0.00,Weather View 32 v70,2013-03-01 16:28:00,
2013-03-01 09:33:00,41.0,12.6,30.36,WSW,247,8.0,17.0,31,0.00,,,0.00,Weather View 32 v70,2013-03-01 16:33:00,
2013-03-01 09:38:00,42.0,13.5,30.36,SSW,202,5.0,17.0,31,0.00,,,0.00,Weather View 32 v70,2013-03-01 16:38:00,
2013-03-01 09:43:00,42.0,12.8,30.36,West,270,10.0,17.0,30,0.00,,,0.00,Weather View 32 v70,2013-03-01 16:43:00,
2013-03-01 09:48:00,43.0,14.4,30.36,West,270,11.0,17.0,31,0.00,,,0.00,Weather View 32 v70,2013-03-01 16:48:00,
2013-03-01 09:53:00,43.0,14.4,30.35,West,270,10.0,20.0,31,0.00,,,0.00,Weather View 32 v70,2013-03-01 16:53:00,
2013-03-01 09:58:00,43.0,13.6,30.35,WSW,247,8.0,20.0,30,0.00,,,0.00,Weather View 32 v70,2013-03-01 16:58:00,
2013-03-01 10:03:00,43.0,13.6,30.35,NW,315,13.0,20.0,30,0.00,,,0.00,Weather View 32 v70,2013-03-01 17:03:00,
2013-03-01 10:08:00,44.0,14.5,30.35,WSW,247,14.0,20.0,30,0.00,,,0.00,Weather View 32 v70,2013-03-01 17:08:00,
2013-03-01 10:13:00,45.0,14.6,30.34,NW,315,10.0,20.0,29,0.00,,,0.00,Weather View 32 v70,2013-03-01 17:13:00,
2013-03-01 10:18:00,45.0,15.4,30.34,West,270,5.0,20.0,30,0.00,,,0.00,Weather View 32 v70,2013-03-01 17:18:00,
2013-03-01 10:23:00,46.0,16.3,30.34,West,270,11.0,20.0,30,0.00,,,0.00,Weather View 32 v70,2013-03-01 17:23:00,
2013-03-01 10:28:00,46.0,16.3,30.34,West,270,12.0,20.0,30,0.00,,,0.00,Weather View 32 v70,2013-03-01 17:28:00,
2013-03-01 10:33:00,47.0,16.3,30.34,NW,315,9.0,20.0,29,0.00,,,0.00,Weather View 32 v70,2013-03-01 17:33:00,
2013-03-01 10:38:00,47.0,17.1,30.34,West,270,7.0,23.0,30,0.00,,,0.00,Weather View 32 v70,2013-03-01 17:38:00,
2013-03-01 10:43:00,47.0,16.3,30.34,WNW,292,9.0,23.0,29,0.00,,,0.00,Weather View 32 v70,2013-03-01 17:43:00,
2013-03-01 10:48:00,48.0,18.0,30.34,WSW,247,9.0,23.0,30,0.00,,,0.00,Weather View 32 v70,2013-03-01 17:48:00,
2013-03-01 10:53:00,48.0,17.2,30.33,WNW,292,12.0,23.0,29,0.00,,,0.00,Weather View 32 v70,2013-03-01 17:53:00,
2013-03-01 10:58:00,48.0,17.2,30.33,NW,315,15.0,23.0,29,0.00,,,0.00,Weather View 32 v70,2013-03-01 17:58:00,
2013-03-01 11:03:00,48.0,16.4,30.34,WNW,292,14.0,23.0,28,0.00,,,0.00,Weather View 32 v70,2013-03-01 18:03:00,
2013-03-01 11:08:00,48.0,18.0,30.34,West,270,17.0,25.0,30,0.00,,,0.00,Weather View 32 v70,2013-03-01 18:08:00,
2013-03-01 11:13:00,48.0,16.4,30.34,SW,225,13.0,25.0,28,0.00,,,0.00,Weather View 32 v70,2013-03-01 18:13:00,
2013-03-01 11:18:00,48.0,17.2,30.34,WSW,247,18.0,25.0,29,0.00,,,0.00,Weather View 32 v70,2013-03-01 18:18:00,
2013-03-01 11:23:00,49.0,17.3,30.33,West,270,6.0,25.0,28,0.00,,,0.00,Weather View 32 v70,2013-03-01 18:23:00,
2013-03-01 11:28:00,49.0,16.4,30.33,West,270,11.0,25.0,27,0.00,,,0.00,Weather View 32 v70,2013-03-01 18:28:00,
2013-03-01 11:33:00,49.0,16.4,30.33,West,270,8.0,25.0,27,0.00,,,0.00,Weather View 32 v70,2013-03-01 18:33:00,
2013-03-01 11:38:00,50.0,17.3,30.33,SW,225,10.0,25.0,27,0.00,,,0.00,Weather View 32 v70,2013-03-01 18:38:00,
2013-03-01 11:43:00,50.0,17.3,30.32,West,270,17.0,26.0,27,0.00,,,0.00,Weather View 32 v70,2013-03-01 18:43:00,
2013-03-01 11:48:00,50.0,16.4,30.32,WSW,247,18.0,26.0,26,0.00,,,0.00,Weather View 32 v70,2013-03-01 18:48:00,
2013-03-01 11:53:00,50.0,17.3,30.32,WSW,247,15.0,26.0,27,0.00,,,0.00,Weather View 32 v70,2013-03-01 18:53:00,
2013-03-01 11:58:00,51.0,19.0,30.32,West,270,13.0,26.0,28,0.00,,,0.00,Weather View 32 v70,2013-03-01 18:58:00,
2013-03-01 12:03:00,51.0,19.0,30.32,WNW,292,6.0,26.0,28,0.00,,,0.00,Weather View 32 v70,2013-03-01 19:03:00,
2013-03-01 12:08:00,51.0,18.1,30.31,NW,315,17.0,26.0,27,0.00,,,0.00,Weather View 32 v70,2013-03-01 19:08:00,
2013-03-01 12:13:00,52.0,19.0,30.31,West,270,11.0,26.0,27,0.00,,,0.00,Weather View 32 v70,2013-03-01 19:13:00,
2013-03-01 12:18:00,52.0,18.1,30.31,West,270,11.0,26.0,26,0.00,,,0.00,Weather View 32 v70,2013-03-01 19:18:00,
2013-03-01 12:23:00,52.0,18.1,30.30,West,270,18.0,26.0,26,0.00,,,0.00,Weather View 32 v70,2013-03-01 19:23:00,
2013-03-01 12:28:00,52.0,19.8,30.30,NW,315,7.0,26.0,28,0.00,,,0.00,Weather View 32 v70,2013-03-01 19:28:00,
2013-03-01 12:33:00,52.0,18.1,30.30,West,270,12.0,30.0,26,0.00,,,0.00,Weather View 32 v70,2013-03-01 19:33:00,
2013-03-01 12:38:00,52.0,19.0,30.30,NW,315,4.0,30.0,27,0.00,,,0.00,Weather View 32 v70,2013-03-01 19:38:00,
2013-03-01 12:43:00,52.0,18.1,30.30,WNW,292,11.0,30.0,26,0.00,,,0.00,Weather View 32 v70,2013-03-01 19:43:00,
2013-03-01 12:48:00,52.0,18.1,30.30,WNW,292,9.0,30.0,26,0.00,,,0.00,Weather View 32 v70,2013-03-01 19:48:00,
2013-03-01 12:53:00,53.0,20.7,30.30,West,270,8.0,30.0,28,0.00,,,0.00,Weather View 32 v70,2013-03-01 19:53:00,
2013-03-01 12:58:00,53.0,19.0,30.30,WNW,292,13.0,30.0,26,0.00,,,0.00,Weather View 32 v70,2013-03-01 19:58:00,
2013-03-01 13:03:00,53.0,20.7,30.29,NW,315,13.0,30.0,28,0.00,,,0.00,Weather View 32 v70,2013-03-01 20:03:00,
2013-03-01 13:08:00,53.0,19.9,30.29,West,270,12.0,30.0,27,0.00,,,0.00,Weather View 32 v70,2013-03-01 20:08:00,
2013-03-01 13:13:00,53.0,19.9,30.30,NW,315,15.0,30.0,27,0.00,,,0.00,Weather View 32 v70,2013-03-01 20:13:00,
2013-03-01 13:18:00,54.0,19.8,30.30,West,270,15.0,30.0,26,0.00,,,0.00,Weather View 32 v70,2013-03-01 20:18:00,
2013-03-01 13:23:00,54.0,19.8,30.29,SW,225,8.0,30.0,26,0.00,,,0.00,Weather View 32 v70,2013-03-01 20:23:00,
2013-03-01 13:28:00,54.0,20.7,30.29,West,270,15.0,30.0,27,0.00,,,0.00,Weather View 32 v70,2013-03-01 20:28:00,
2013-03-01 13:33:00,54.0,20.7,30.28,West,270,13.0,25.0,27,0.00,,,0.00,Weather View 32 v70,2013-03-01 20:33:00,
2013-03-01 13:38:00,53.0,19.0,30.28,WSW,247,14.0,25.0,26,0.00,,,0.00,Weather View 32 v70,2013-03-01 20:38:00,
2013-03-01 13:43:00,54.0,21.6,30.26,West,270,16.0,25.0,28,0.00,,,0.00,Weather View 32 v70,2013-03-01 20:43:00,
2013-03-01 13:48:00,54.0,20.7,30.26,WNW,292,13.0,28.0,27,0.00,,,0.00,Weather View 32 v70,2013-03-01 20:48:00,
2013-03-01 13:53:00,54.0,19.8,30.26,West,270,12.0,28.0,26,0.00,,,0.00,Weather View 32 v70,2013-03-01 20:53:00,
2013-03-01 13:58:00,53.0,20.7,30.26,West,270,24.0,28.0,28,0.00,,,0.00,Weather View 32 v70,2013-03-01 20:58:00,
2013-03-01 14:03:00,53.0,19.9,30.26,NW,315,21.0,28.0,27,0.00,,,0.00,Weather View 32 v70,2013-03-01 21:03:00,
2013-03-01 14:08:00,53.0,19.9,30.26,NW,315,18.0,28.0,27,0.00,,,0.00,Weather View 32 v70,2013-03-01 21:08:00,
2013-03-01 14:13:00,53.0,20.7,30.26,West,270,19.0,33.0,28,0.00,,,0.00,Weather View 32 v70,2013-03-01 21:13:00,
2013-03-01 14:18:00,54.0,19.8,30.26,West,270,18.0,33.0,26,0.00,,,0.00,Weather View 32 v70,2013-03-01 21:18:00,
2013-03-01 14:23:00,54.0,19.8,30.25,NW,315,20.0,33.0,26,0.00,,,0.00,Weather View 32 v70,2013-03-01 21:23:00,
2013-03-01 14:28:00,54.0,19.8,30.25,West,270,19.0,33.0,26,0.00,,,0.00,Weather View 32 v70,2013-03-01 21:28:00,
2013-03-01 14:33:00,54.0,20.7,30.24,West,270,10.0,33.0,27,0.00,,,0.00,Weather View 32 v70,2013-03-01 21:33:00,
2013-03-01 14:38:00,54.0,19.8,30.24,WNW,292,11.0,34.0,26,0.00,,,0.00,Weather View 32 v70,2013-03-01 21:38:00,
2013-03-01 14:43:00,54.0,19.8,30.24,NW,315,15.0,34.0,26,0.00,,,0.00,Weather View 32 v70,2013-03-01 21:43:00,
2013-03-01 14:48:00,54.0,19.8,30.24,West,270,24.0,34.0,26,0.00,,,0.00,Weather View 32 v70,2013-03-01 21:48:00,
2013-03-01 14:53:00,54.0,19.8,30.25,North,360,24.0,34.0,26,0.00,,,0.00,Weather View 32 v70,2013-03-01 21:53:00,
2013-03-01 14:58:00,54.0,20.7,30.25,WNW,292,27.0,34.0,27,0.00,,,0.00,Weather View 32 v70,2013-03-01 21:58:00,
2013-03-01 15:03:00,54.0,19.8,30.25,West,270,19.0,34.0,26,0.00,,,0.00,Weather View 32 v70,2013-03-01 22:03:00,
2013-03-01 15:08:00,54.0,19.8,30.25,West,270,14.0,34.0,26,0.00,,,0.00,Weather View 32 v70,2013-03-01 22:08:00,
2013-03-01 15:13:00,54.0,19.8,30.25,NW,315,11.0,34.0,26,0.00,,,0.00,Weather View 32 v70,2013-03-01 22:13:00,
2013-03-01 15:18:00,54.0,19.8,30.25,WNW,292,10.0,34.0,26,0.00,,,0.00,Weather View 32 v70,2013-03-01 22:18:00,
2013-03-01 15:23:00,54.0,19.8,30.25,West,270,14.0,34.0,26,0.00,,,0.00,Weather View 32 v70,2013-03-01 22:23:00,
2013-03-01 15:28:00,54.0,19.8,30.25,West,270,13.0,34.0,26,0.00,,,0.00,Weather View 32 v70,2013-03-01 22:28:00,
2013-03-01 15:33:00,54.0,19.8,30.25,NW,315,11.0,34.0,26,0.00,,,0.00,Weather View 32 v70,2013-03-01 22:33:00,
2013-03-01 15:38:00,54.0,19.8,30.25,West,270,17.0,33.0,26,0.00,,,0.00,Weather View 32 v70,2013-03-01 22:38:00,
2013-03-01 15:43:00,54.0,19.8,30.25,WNW,292,17.0,33.0,26,0.00,,,0.00,Weather View 32 v70,2013-03-01 22:43:00,
2013-03-01 15:48:00,54.0,21.6,30.25,West,270,13.0,33.0,28,0.00,,,0.00,Weather View 32 v70,2013-03-01 22:48:00,
2013-03-01 15:53:00,53.0,19.9,30.25,NW,315,15.0,32.0,27,0.00,,,0.00,Weather View 32 v70,2013-03-01 22:53:00,
2013-03-01 15:58:00,53.0,19.9,30.25,West,270,10.0,32.0,27,0.00,,,0.00,Weather View 32 v70,2013-03-01 22:58:00,
2013-03-01 16:03:00,53.0,19.9,30.25,WNW,292,14.0,32.0,27,0.00,,,0.00,Weather View 32 v70,2013-03-01 23:03:00,
2013-03-01 16:08:00,53.0,19.9,30.26,West,270,19.0,32.0,27,0.00,,,0.00,Weather View 32 v70,2013-03-01 23:08:00,
2013-03-01 16:13:00,53.0,19.9,30.25,West,270,10.0,32.0,27,0.00,,,0.00,Weather View 32 v70,2013-03-01 23:13:00,
2013-03-01 16:18:00,53.0,19.0,30.25,NW,315,19.0,32.0,26,0.00,,,0.00,Weather View 32 v70,2013-03-01 23:18:00,
2013-03-01 16:23:00,53.0,19.0,30.26,West,270,11.0,31.0,26,0.00,,,0.00,Weather View 32 v70,2013-03-01 23:23:00,
2013-03-01 16:28:00,53.0,19.9,30.26,NW,315,11.0,29.0,27,0.00,,,0.00,Weather View 32 v70,2013-03-01 23:28:00,
2013-03-01 16:33:00,53.0,19.9,30.26,West,270,16.0,29.0,27,0.00,,,0.00,Weather View 32 v70,2013-03-01 23:33:00,
2013-03-01 16:38:00,52.0,19.0,30.26,NW,315,15.0,29.0,27,0.00,,,0.00,Weather View 32 v70,2013-03-01 23:38:00,
2013-03-01 16:43:00,52.0,19.8,30.27,NW,315,16.0,29.0,28,0.00,,,0.00,Weather View 32 v70,2013-03-01 23:43:00,
2013-03-01 16:48:00,52.0,19.0,30.27,NW,315,18.0,29.0,27,0.00,,,0.00,Weather View 32 v70,2013-03-01 23:48:00,
2013-03-01 16:53:00,52.0,19.8,30.26,WNW,292,9.0,29.0,28,0.00,,,0.00,Weather View 32 v70,2013-03-01 23:53:00,
2013-03-01 16:58:00,52.0,19.8,30.26,NW,315,8.0,29.0,28,0.00,,,0.00,Weather View 32 v70,2013-03-01 23:58:00,
2013-03-01 17:03:00,52.0,20.7,30.27,WNW,292,19.0,29.0,29,0.00,,,0.00,Weather View 32 v70,2013-03-02 00:03:00,
2013-03-01 17:08:00,51.0,19.8,30.27,NW,315,17.0,29.0,29,0.00,,,0.00,Weather View 32 v70,2013-03-02 00:08:00,
2013-03-01 17:13:00,51.0,19.8,30.27,West,270,11.0,27.0,29,0.00,,,0.00,Weather View 32 v70,2013-03-02 00:13:00,
2013-03-01 17:18:00,51.0,19.8,30.27,NW,315,12.0,27.0,29,0.00,,,0.00,Weather View 32 v70,2013-03-02 00:18:00,
2013-03-01 17:23:00,51.0,19.8,30.28,NW,315,11.0,27.0,29,0.00,,,0.00,Weather View 32 v70,2013-03-02 00:23:00,
2013-03-01 17:28:00,50.0,18.1,30.28,West,270,16.0,27.0,28,0.00,,,0.00,Weather View 32 v70,2013-03-02 00:28:00,
2013-03-01 17:33:00,50.0,18.9,30.28,NW,315,8.0,27.0,29,0.00,,,0.00,Weather View 32 v70,2013-03-02 00:33:00,
2013-03-01 17:38:00,50.0,19.7,30.28,West,270,11.0,27.0,30,0.00,,,0.00,Weather View 32 v70,2013-03-02 00:38:00,
2013-03-01 17:43:00,49.0,18.9,30.28,WNW,292,14.0,27.0,30,0.00,,,0.00,Weather View 32 v70,2013-03-02 00:43:00,
2013-03-01 17:48:00,49.0,18.9,30.28,NW,315,14.0,27.0,30,0.00,,,0.00,Weather View 32 v70,2013-03-02 00:48:00,
2013-03-01 17:53:00,49.0,18.9,30.28,WNW,292,12.0,27.0,30,0.00,,,0.00,Weather View 32 v70,2013-03-02 00:53:00,
2013-03-01 17:58:00,49.0,20.4,30.28,NW,315,18.0,27.0,32,0.00,,,0.00,Weather View 32 v70,2013-03-02 00:58:00,
2013-03-01 18:03:00,48.0,19.5,30.28,WNW,292,11.0,27.0,32,0.00,,,0.00,Weather View 32 v70,2013-03-02 01:03:00,
2013-03-01 18:08:00,48.0,19.5,30.29,West,270,25.0,27.0,32,0.00,,,0.00,Weather View 32 v70,2013-03-02 01:08:00,
2013-03-01 18:13:00,47.0,18.6,30.29,NW,315,12.0,27.0,32,0.00,,,0.00,Weather View 32 v70,2013-03-02 01:13:00,
2013-03-01 18:18:00,47.0,19.3,30.29,NW,315,7.0,27.0,33,0.00,,,0.00,Weather View 32 v70,2013-03-02 01:18:00,
2013-03-01 18:23:00,47.0,19.3,30.30,WNW,292,10.0,27.0,33,0.00,,,0.00,Weather View 32 v70,2013-03-02 01:23:00,
2013-03-01 18:28:00,47.0,19.3,30.30,WNW,292,10.0,27.0,33,0.00,,,0.00,Weather View 32 v70,2013-03-02 01:28:00,
2013-03-01 18:33:00,46.0,19.2,30.30,West,270,9.0,25.0,34,0.00,,,0.00,Weather View 32 v70,2013-03-02 01:33:00,
2013-03-01 18:38:00,46.0,19.2,30.30,NW,315,9.0,25.0,34,0.00,,,0.00,Weather View 32 v70,2013-03-02 01:38:00,
2013-03-01 18:43:00,46.0,19.2,30.30,WNW,292,9.0,25.0,34,0.00,,,0.00,Weather View 32 v70,2013-03-02 01:43:00,
2013-03-01 18:48:00,46.0,19.2,30.30,WNW,292,8.0,25.0,34,0.00,,,0.00,Weather View 32 v70,2013-03-02 01:48:00,
2013-03-01 18:53:00,45.0,19.0,30.30,WNW,292,7.0,25.0,35,0.00,,,0.00,Weather View 32 v70,2013-03-02 01:53:00,
2013-03-01 18:58:00,45.0,19.0,30.30,West,270,7.0,25.0,35,0.00,,,0.00,Weather View 32 v70,2013-03-02 01:58:00,
2013-03-01 19:03:00,45.0,19.0,30.31,West,270,10.0,25.0,35,0.00,,,0.00,Weather View 32 v70,2013-03-02 02:03:00,
2013-03-01 19:08:00,45.0,19.0,30.31,WNW,292,11.0,25.0,35,0.00,,,0.00,Weather View 32 v70,2013-03-02 02:08:00,
2013-03-01 19:13:00,45.0,19.6,30.31,WNW,292,10.0,21.0,36,0.00,,,0.00,Weather View 32 v70,2013-03-02 02:13:00,
2013-03-01 19:18:00,45.0,19.0,30.31,West,270,10.0,19.0,35,0.00,,,0.00,Weather View 32 v70,2013-03-02 02:18:00,
2013-03-01 19:23:00,45.0,19.0,30.31,West,270,9.0,19.0,35,0.00,,,0.00,Weather View 32 v70,2013-03-02 02:23:00,
2013-03-01 19:28:00,45.0,19.6,30.31,NW,315,7.0,19.0,36,0.00,,,0.00,Weather View 32 v70,2013-03-02 02:28:00,
2013-03-01 19:33:00,44.0,18.7,30.31,West,270,7.0,17.0,36,0.00,,,0.00,Weather View 32 v70,2013-03-02 02:33:00,
2013-03-01 19:38:00,44.0,19.4,30.31,West,270,6.0,17.0,37,0.00,,,0.00,Weather View 32 v70,2013-03-02 02:38:00,
2013-03-01 19:43:00,44.0,19.4,30.32,West,270,8.0,17.0,37,0.00,,,0.00,Weather View 32 v70,2013-03-02 02:43:00,
2013-03-01 19:48:00,44.0,19.4,30.32,West,270,10.0,17.0,37,0.00,,,0.00,Weather View 32 v70,2013-03-02 02:48:00,
2013-03-01 19:53:00,43.0,19.1,30.32,WNW,292,10.0,17.0,38,0.00,,,0.00,Weather View 32 v70,2013-03-02 02:53:00,
2013-03-01 19:58:00,43.0,19.1,30.32,WNW,292,10.0,17.0,38,0.00,,,0.00,Weather View 32 v70,2013-03-02 02:58:00,
2013-03-01 20:03:00,43.0,19.1,30.32,West,270,6.0,17.0,38,0.00,,,0.00,Weather View 32 v70,2013-03-02 03:03:00,
2013-03-01 20:08:00,43.0,19.1,30.32,WNW,292,5.0,17.0,38,0.00,,,0.00,Weather View 32 v70,2013-03-02 03:08:00,
2013-03-01 20:13:00,43.0,19.1,30.33,NW,315,6.0,17.0,38,0.00,,,0.00,Weather View 32 v70,2013-03-02 03:13:00,
2013-03-01 20:18:00,43.0,19.1,30.33,West,270,5.0,16.0,38,0.00,,,0.00,Weather View 32 v70,2013-03-02 03:18:00,
2013-03-01 20:23:00,43.0,19.1,30.33,West,270,6.0,16.0,38,0.00,,,0.00,Weather View 32 v70,2013-03-02 03:23:00,
2013-03-01 20:28:00,43.0,20.3,30.33,West,270,6.0,16.0,40,0.00,,,0.00,Weather View 32 v70,2013-03-02 03:28:00,
2013-03-01 20:33:00,43.0,19.1,30.32,NW,315,4.0,16.0,38,0.00,,,0.00,Weather View 32 v70,2013-03-02 03:33:00,
2013-03-01 20:38:00,43.0,19.7,30.32,West,270,5.0,16.0,39,0.00,,,0.00,Weather View 32 v70,2013-03-02 03:38:00,
2013-03-01 20:43:00,43.0,19.1,30.33,West,270,8.0,15.0,38,0.00,,,0.00,Weather View 32 v70,2013-03-02 03:43:00,
2013-03-01 20:48:00,43.0,19.1,30.33,NW,315,6.0,15.0,38,0.00,,,0.00,Weather View 32 v70,2013-03-02 03:48:00,
2013-03-01 20:53:00,43.0,19.1,30.33,NW,315,9.0,15.0,38,0.00,,,0.00,Weather View 32 v70,2013-03-02 03:53:00,
2013-03-01 20:58:00,43.0,18.5,30.33,NW,315,7.0,19.0,37,0.00,,,0.00,Weather View 32 v70,2013-03-02 03:58:00,
2013-03-01 21:03:00,43.0,19.1,30.34,NW,315,8.0,19.0,38,0.00,,,0.00,Weather View 32 v70,2013-03-02 04:03:00,
2013-03-01 21:08:00,43.0,19.1,30.34,WNW,292,4.0,19.0,38,0.00,,,0.00,Weather View 32 v70,2013-03-02 04:08:00,
2013-03-01 21:13:00,43.0,19.7,30.34,West,270,6.0,19.0,39,0.00,,,0.00,Weather View 32 v70,2013-03-02 04:13:00,
2013-03-01 21:18:00,43.0,19.7,30.34,West,270,4.0,19.0,39,0.00,,,0.00,Weather View 32 v70,2013-03-02 04:18:00,
2013-03-01 21:23:00,42.0,18.8,30.33,NW,315,8.0,19.0,39,0.00,,,0.00,Weather View 32 v70,2013-03-02 04:23:00,
2013-03-01 21:28:00,42.0,18.8,30.33,West,270,9.0,19.0,39,0.00,,,0.00,Weather View 32 v70,2013-03-02 04:28:00,
2013-03-01 21:33:00,42.0,18.8,30.34,West,270,8.0,19.0,39,0.00,,,0.00,Weather View 32 v70,2013-03-02 04:33:00,
2013-03-01 21:38:00,42.0,19.4,30.34,West,270,8.0,19.0,40,0.00,,,0.00,Weather View 32 v70,2013-03-02 04:38:00,
2013-03-01 21:43:00,42.0,19.4,30.34,WNW,292,7.0,19.0,40,0.00,,,0.00,Weather View 32 v70,2013-03-02 04:43:00,
2013-03-01 21:48:00,42.0,19.4,30.34,West,270,7.0,19.0,40,0.00,,,0.00,Weather View 32 v70,2013-03-02 04:48:00,
2013-03-01 21:53:00,41.0,18.5,30.34,WNW,292,7.0,19.0,40,0.00,,,0.00,Weather View 32 v70,2013-03-02 04:53:00,
2013-03-01 21:58:00,41.0,19.1,30.34,West,270,5.0,19.0,41,0.00,,,0.00,Weather View 32 v70,2013-03-02 04:58:00,
2013-03-01 22:00:00,41.0,19.1,30.34,West,270,11.0,15.0,41,0.00,,,0.00,Weather View 32 v70,2013-03-02 05:00:00,
2013-03-01 22:05:00,41.0,19.1,30.34,West,270,6.0,15.0,41,0.00,,,0.00,Weather View 32 v70,2013-03-02 05:05:00,
2013-03-01 22:10:00,41.0,19.1,30.34,West,270,5.0,15.0,41,0.00,,,0.00,Weather View 32 v70,2013-03-02 05:10:00,
2013-03-01 22:15:00,41.0,19.6,30.34,WNW,292,5.0,15.0,42,0.00,,,0.00,Weather View 32 v70,2013-03-02 05:15:00,
2013-03-01 22:20:00,40.0,18.7,30.34,West,270,6.0,14.0,42,0.00,,,0.00,Weather View 32 v70,2013-03-02 05:20:00,
2013-03-01 22:25:00,40.0,18.7,30.34,West,270,6.0,14.0,42,0.00,,,0.00,Weather View 32 v70,2013-03-02 05:25:00,
2013-03-01 22:30:00,40.0,19.3,30.34,West,270,6.0,14.0,43,0.00,,,0.00,Weather View 32 v70,2013-03-02 05:30:00,
2013-03-01 22:35:00,40.0,19.8,30.35,SW,225,4.0,14.0,44,0.00,,,0.00,Weather View 32 v70,2013-03-02 05:35:00,
2013-03-01 22:40:00,39.0,18.9,30.35,SW,225,3.0,14.0,44,0.00,,,0.00,Weather View 32 v70,2013-03-02 05:40:00,
2013-03-01 22:45:00,39.0,19.9,30.35,West,270,2.0,14.0,46,0.00,,,0.00,Weather View 32 v70,2013-03-02 05:45:00,
2013-03-01 22:50:00,38.0,19.5,30.35,West,270,4.0,14.0,47,0.00,,,0.00,Weather View 32 v70,2013-03-02 05:50:00,
2013-03-01 22:55:00,38.0,20.5,30.36,West,270,5.0,12.0,49,0.00,,,0.00,Weather View 32 v70,2013-03-02 05:55:00,
2013-03-01 23:00:00,37.0,19.6,30.36,WNW,292,4.0,12.0,49,0.00,,,0.00,Weather View 32 v70,2013-03-02 06:00:00,
2013-03-01 23:05:00,37.0,19.6,30.36,West,270,3.0,11.0,49,0.00,,,0.00,Weather View 32 v70,2013-03-02 06:05:00,
2013-03-01 23:10:00,37.0,19.6,30.36,West,270,3.0,11.0,49,0.00,,,0.00,Weather View 32 v70,2013-03-02 06:10:00,
2013-03-01 23:15:00,37.0,19.6,30.36,West,270,3.0,11.0,49,0.00,,,0.00,Weather View 32 v70,2013-03-02 06:15:00,
2013-03-01 23:20:00,37.0,19.6,30.36,West,270,3.0,9.0,49,0.00,,,0.00,Weather View 32 v70,2013-03-02 06:20:00,
2013-03-01 23:25:00,36.0,18.7,30.36,West,270,3.0,8.0,49,0.00,,,0.00,Weather View 32 v70,2013-03-02 06:25:00,
2013-03-01 23:30:00,36.0,18.7,30.36,West,270,2.0,8.0,49,0.00,,,0.00,Weather View 32 v70,2013-03-02 06:30:00,
2013-03-01 23:35:00,36.0,18.7,30.36,West,270,0.0,6.0,49,0.00,,,0.00,Weather View 32 v70,2013-03-02 06:35:00,
2013-03-01 23:40:00,35.0,18.7,30.36,West,270,3.0,6.0,51,0.00,,,0.00,Weather View 32 v70,2013-03-02 06:40:00,
2013-03-01 23:45:00,35.0,18.7,30.36,West,270,3.0,6.0,51,0.00,,,0.00,Weather View 32 v70,2013-03-02 06:45:00,
2013-03-01 23:50:00,35.0,19.1,30.36,West,270,2.0,6.0,52,0.00,,,0.00,Weather View 32 v70,2013-03-02 06:50:00,
2013-03-01 23:55:00,35.0,19.6,30.37,West,270,3.0,6.0,53,0.00,,,0.00,Weather View 32 v70,2013-03-02 06:55:00,